Flag for U.S.A. Weather past 2 weeks in Stockton, California, U.S.A.

Now
77 °F

Sunny.


Feels Like: 78 °F
Forecast: 60 / 82 °F
Wind: 14 mph from Northwest

Location: Stockton Metropolitan Airport

Current Time: Aug 3, 2015 at 9:08:36 PM

Latest Report: Aug 3, 2015 at 7:55 PM


Visibility: 10 mi

Pressure: 29.87 "Hg

Humidity: 44%

Dew point: 53 °F

Location of StocktonLocation

Historic Weather in Stockton — Graph

°F

Stockton temperature yesterday

Maximum temperature yesterday: 91 °F (at 4:55 PM)
Minimum temperature yesterday: 61 °F (at 5:55 AM)
Average temperature yesterday: 75 °F

Past Weeks' High & Low Weather Summary

 TemperatureHumidityPressure
High105 °F (Jul 29, 2:55 PM)87% (Jul 26, 5:55 AM)30.09 "Hg (Jul 26, 5:55 AM)
Low58 °F (Jul 25, 5:55 AM)11% (Jul 24, 3:55 PM)29.75 "Hg (Jul 21, 4:55 PM)
Average78 °F47%29.89 "Hg
* Reported Jul 19 7:55 PM — Aug 3 7:55 PM, Stockton, Weather by CustomWeather, © 2015

Note: Actual official high and low records may vary slightly from our data, if they occured in-between our weather recording intervals... More about our weather records

Advertising

Stockton weather history for previous 24 hours

 ConditionsComfort  
Time TempWeatherWind HumidityBarometerVisibility
7:55 PM
Mon, Aug 3
77 °FSunny.14 mph44%29.87 "Hg10 mi
6:55 PM81 °FSunny.18 mph37%29.85 "Hg10 mi
5:55 PM85 °FSunny.15 mph35%29.84 "Hg10 mi
4:55 PM88 °FSunny.14 mph30%29.85 "Hg10 mi
3:55 PM88 °FSunny.9 mph33%29.85 "Hg10 mi
2:55 PM89 °FSunny.13 mph30%29.87 "Hg10 mi
1:55 PM86 °FSunny.8 mph36%29.89 "Hg10 mi
12:55 PM82 °FSunny.10 mph40%29.90 "Hg10 mi
11:55 AM81 °FSunny.8 mph42%29.91 "Hg10 mi
10:55 AM76 °FSunny.7 mph48%29.92 "Hg10 mi
9:55 AM73 °FSunny.6 mph53%29.92 "Hg10 mi
8:55 AM70 °FSunny.13 mph59%29.93 "Hg10 mi
7:55 AM66 °FSunny.No wind73%29.92 "Hg10 mi
6:55 AM62 °FClear.5 mph83%29.91 "Hg10 mi
5:55 AM63 °FClear.10 mph78%29.89 "Hg10 mi
4:55 AM64 °FClear.14 mph75%29.88 "Hg10 mi
3:55 AM64 °FClear.13 mph75%29.87 "Hg10 mi
2:55 AM65 °FClear.13 mph73%29.86 "Hg10 mi
1:55 AM66 °FClear.10 mph68%29.86 "Hg10 mi
12:55 AM66 °FClear.12 mph68%29.85 "Hg10 mi
11:55 PM
Sun, Aug 2
68 °FClear.14 mph59%29.85 "Hg10 mi
10:55 PM71 °FClear.12 mph47%29.85 "Hg10 mi
9:55 PM73 °FClear.12 mph41%29.85 "Hg10 mi
Weather by CustomWeather, © 2015

See weather overviewHow to use our weather pages